GW6744 Weather Reports


time (UTC)temp
C
wind
direction
speed
KPH
gust
KPH
rain 1hr
cm
rain 24hr
cm
rain mn
cm
humidity
%
barometer
mb
20260507151542 12 238 3.2 9.7 0.00 0.03 0.00 64 1014.5
20260507150047 11 247 3.2 11.3 0.00 0.03 0.00 66 1014.5
20260507144610 10 171 4.8 11.3 0.00 0.08 0.00 68 1014.4
20260507143045 10 303 3.2 9.7 0.00 0.08 0.00 69 1014.7
20260507141548 9 273 1.6 11.3 0.00 0.08 0.00 73 1014.9
20260507140042 8 260 3.2 11.3 0.00 0.08 0.00 74 1015.0
20260507134544 8 248 3.2 9.7 0.00 0.18 0.00 76 1015.2
20260507133048 7 141 3.2 11.3 0.00 0.18 0.00 78 1015.3
20260507131545 6 234 1.6 16.1 0.00 0.18 0.00 81 1015.5
20260507130043 5 224 1.6 8.0 0.00 0.18 0.00 82 1015.5
20260507124543 4 218 1.6 8.0 0.00 0.20 0.00 85 1015.6
20260507123041 3 158 0.0 6.4 0.00 0.20 0.00 88 1015.9
20260507121540 2 205 0.0 3.2 0.00 0.20 0.00 90 1015.9
20260507120048 2 218 0.0 4.8 0.00 0.20 0.00 90 1015.8
20260507114547 2 205 0.0 3.2 0.00 0.23 0.00 90 1015.8
20260507113044 2 298 0.0 1.6 0.00 0.23 0.00 91 1015.9
20260507111549 2 0 0.0 1.6 0.00 0.23 0.00 91 1016.0
20260507110042 2 261 0.0 1.6 0.00 0.23 0.00 90 1016.2
20260507104540 2 0 0.0 1.6 0.00 0.23 0.00 89 1016.5
20260507103045 2 155 0.0 3.2 0.00 0.23 0.00 89 1016.4
20260507101549 3 203 0.0 1.6 0.00 0.23 0.00 88 1016.4
20260507100045 3 250 0.0 3.2 0.00 0.23 0.00 89 1016.7
20260507094547 3 258 0.0 3.2 0.00 0.23 0.00 89 1016.9
20260507093045 3 290 0.0 4.8 0.00 0.23 0.00 89 1017.1
20260507091542 3 297 0.0 3.2 0.00 0.23 0.00 89 1017.3
20260507090039 3 277 0.0 6.4 0.00 0.23 0.00 88 1017.4
20260507084546 3 236 0.0 3.2 0.00 0.30 0.00 88 1017.4
20260507083044 3 0 0.0 1.6 0.00 0.30 0.00 88 1017.4
20260507081543 3 202 0.0 3.2 0.00 0.30 0.00 89 1017.6
20260507080043 3 295 0.0 3.2 0.00 0.30 0.00 89 1017.8
20260507074541 3 124 0.0 1.6 0.00 0.53 0.00 89 1018.1
20260507073052 3 0 0.0 1.6 0.00 0.53 0.00 88 1018.3
20260507071539 4 288 0.0 1.6 0.00 0.53 0.00 88 1018.5
20260507070051 5 110 0.0 1.6 0.00 0.53 0.00 87 1018.6
20260507064548 5 245 0.0 3.2 0.00 0.58 0.00 87 1018.7
20260507063049 5 289 0.0 3.2 0.00 0.58 0.00 87 1018.9
20260507061544 5 0 0.0 3.2 0.00 0.58 0.00 87 1019.1
20260507060051 5 0 0.0 3.2 0.00 0.58 0.00 87 1019.2
20260507054547 6 297 0.0 4.8 0.00 0.64 0.00 86 1019.3
20260507053042 6 262 0.0 6.4 0.00 0.64 0.00 85 1019.4
20260507051537 6 296 0.0 3.2 0.00 0.64 0.00 85 1019.4
20260507050045 6 284 0.0 3.2 0.00 0.64 0.00 85 1019.4
20260507044555 6 251 1.6 6.4 0.00 0.64 0.64 84 1019.5
20260507043048 7 262 0.0 4.8 0.00 0.64 0.64 84 1019.6
20260507041545 7 306 0.0 6.4 0.00 0.64 0.64 82 1019.7
20260507040045 7 286 1.6 8.0 0.00 0.64 0.64 82 1019.6
20260507034545 7 247 1.6 8.0 0.00 0.64 0.64 80 1019.5
20260507033044 8 268 1.6 3.2 0.00 0.64 0.64 78 1019.5
20260507031550 8 270 0.0 6.4 0.00 0.64 0.64 76 1019.5
20260507030050 8 281 0.0 4.8 0.00 0.64 0.64 76 1019.4
20260507024549 9 253 1.6 6.4 0.00 0.69 0.64 75 1019.3
20260507023050 9 288 0.0 3.2 0.00 0.69 0.64 75 1019.1
20260507021543 9 257 0.0 3.2 0.00 0.69 0.64 74 1018.9
20260507020051 10 0 0.0 6.4 0.00 0.69 0.64 73 1018.8
20260507014546 10 304 0.0 4.8 0.00 0.89 0.64 71 1018.7
20260507013056 10 0 0.0 1.6 0.00 0.89 0.64 71 1018.6
20260507011557 10 0 0.0 1.6 0.00 0.89 0.64 71 1018.7
20260507010053 10 345 0.0 1.6 0.00 0.89 0.64 70 1018.7
20260507004550 11 253 0.0 4.8 0.00 0.94 0.64 67 1018.5
20260507003047 11 288 0.0 4.8 0.00 0.94 0.64 61 1018.5
20260507001545 11 300 1.6 6.4 0.00 0.94 0.64 61 1018.5
20260507000051 11 259 1.6 6.4 0.00 0.94 0.64 61 1018.6
20260506234543 12 269 1.6 4.8 0.00 0.94 0.64 59 1018.6
20260506233052 12 296 0.0 4.8 0.00 0.94 0.64 59 1018.7
20260506231544 12 248 1.6 6.4 0.00 0.94 0.64 55 1018.6
20260506230050 13 285 1.6 4.8 0.00 0.94 0.64 55 1018.5
20260506224559 12 278 1.6 6.4 0.00 0.94 0.64 57 1018.6
20260506223044 12 249 1.6 8.0 0.00 0.94 0.64 57 1018.6
20260506221543 12 294 1.6 6.4 0.00 0.94 0.64 56 1018.6
20260506220045 12 283 0.0 6.4 0.00 0.94 0.64 58 1018.6
20260506214559 12 309 0.0 6.4 0.00 0.94 0.64 58 1018.8
20260506213042 12 207 0.0 3.2 0.00 0.94 0.64 58 1019.0
20260506211538 11 289 1.6 4.8 0.00 0.94 0.64 59 1019.2
20260506210044 12 308 0.0 4.8 0.00 0.94 0.64 58 1019.2
20260506204544 12 120 0.0 4.8 0.00 0.94 0.64 56 1019.3
20260506203047 12 1 0.0 6.4 0.00 0.94 0.64 57 1019.4
20260506201544 13 240 1.6 6.4 0.00 0.94 0.64 54 1019.6
20260506200038 12 154 1.6 6.4 0.00 0.94 0.64 58 1019.6
20260506194558 12 136 4.8 9.7 0.00 0.94 0.64 54 1019.8
20260506193043 12 121 4.8 9.7 0.00 0.94 0.64 57 1019.9
20260506191542 12 302 0.0 4.8 0.00 0.94 0.64 57 1020.1
20260506190044 12 307 1.6 4.8 0.00 0.94 0.64 64 1020.3
20260506184542 10 123 1.6 6.4 0.00 0.94 0.64 62 1020.4
20260506183038 11 153 0.0 9.7 0.00 0.94 0.64 65 1020.5
20260506181547 11 82 1.6 8.0 0.00 0.94 0.64 63 1020.6
20260506180049 11 309 1.6 6.4 0.00 0.94 0.64 65 1020.6
20260506174542 10 174 3.2 8.0 0.00 0.94 0.64 68 1020.8
20260506173048 10 0 1.6 6.4 0.00 0.94 0.64 66 1020.7
20260506171551 9 122 1.6 8.0 0.00 0.94 0.64 72 1020.6
20260506170049 9 97 1.6 9.7 0.00 0.94 0.64 74 1020.5
20260506164543 8 141 1.6 6.4 0.00 0.94 0.64 75 1020.6
20260506163048 8 127 1.6 8.0 0.00 0.94 0.64 79 1020.7
20260506161543 7 180 3.2 6.4 0.00 0.94 0.64 78 1020.8
20260506160042 7 148 1.6 4.8 0.00 0.94 0.64 78 1020.9
20260506154601 7 100 1.6 6.4 0.03 0.94 0.64 82 1020.6
20260506153045 7 72 1.6 3.2 0.03 0.94 0.64 83 1020.5
20260506151551 6 98 0.0 3.2 0.05 0.94 0.64 85 1020.5